Tracking 33198 objects as of 13-Feb-2026
HD Live streaming from Space Station
objects crossing your sky now

THORAD AGENA D DEB

Track THORAD AGENA D DEB now!
10-day predictions


NORAD ID: 4435
Int'l Code: 1969-082EG
Perigee: 595.4 km
Apogee: 608.4 km
Inclination: 70.0 °
Period: 96.6 minutes
Semi major axis: 6972 km
RCS: 0.0609 m2 (small)
Launch date: September 30, 1969
Source: United States (US)
Launch site: AIR FORCE WESTERN TEST RANGE (AFWTR)

Note: This is SATELLITE DEBRIS
Your satellite tracking list
Your tracking list is empty




NASA's NSSDC Master Catalog

Two Line Element Set (TLE):
1 04435U 69082EG  26044.05090101  .00009506  00000-0  96634-3 0  9994
2 04435  70.0122 276.8954 0009332  58.0946 302.1116 14.91010981948616
Source of the keplerian elements: AFSPC